Location: Unspecified
(0.0000°N, 0.0000°E)
Time: 09:36:28
(UTC+00:00)

O/OREOS (USA 219) - Pass Details

Date: 24 May 2021
Orbit: 621 x 646 km, 72.0° (Epoch: 22 May)

Event Time Altitude Azimuth Distance (km) Brightness Sun altitude
Exits shadow 04:27:25 17° 319° (NW) 1,576 ? -20.8°
Drops below altitude 10° 04:28:57 10° 336° (NNW) 1,981 ? -20.5°
Sets 04:31:36 0° 351° (N) 2,886 ? -19.9°
